Simultaneous Nadir Overpasses (SNOs) Predictions

Prediction of SNOs between AQUA and METOP-A Satellite Orbit:

Table of predicted SNOs for the next 14.0 days since TLE Epoch: 8/10/2012
Index Date (AQUA) Time (AQUA) AQUA Lat,Lon Date (METOP-A) Time (METOP-A) METOP-A Lat,Lon Distance(km) Time Diff (sec)
1 08/10/2012 20:08:44 73.77,-127.84 08/10/2012 20:08:08 73.80,-127.86 3.42 36
2 08/10/2012 20:58:11 -73.85, 39.63 08/10/2012 20:58:48 -73.88, 39.66 3.28 37
3 08/13/2012 15:42:56 73.84, -61.52 08/13/2012 15:42:31 73.82, -61.42 3.71 25
4 08/13/2012 16:32:22 -73.86, 106.07 08/13/2012 16:33:12 -73.85, 105.98 2.98 50
5 08/16/2012 10:27:33 -73.50,-161.99 08/16/2012 10:26:22 -73.43,-163.25 40.59 71
6 08/16/2012 11:17:06 73.80, 5.01 08/16/2012 11:16:54 73.83, 5.01 3.08 12
7 08/16/2012 12:06:33 -73.87, 172.50 08/16/2012 12:07:35 -73.86, 172.41 3.05 62
8 08/19/2012 06:01:48 -73.78, -96.14 08/19/2012 06:00:37 -73.78, -96.03 3.31 71
9 08/19/2012 06:51:16 73.83, 71.40 08/19/2012 06:51:16 73.83, 71.41 0.65 0
10 08/19/2012 07:40:43 -73.89,-121.09 08/19/2012 07:41:56 -73.91,-121.07 2.68 73
11 08/22/2012 01:35:58 -73.76, -29.63 08/22/2012 01:35:00 -73.78, -29.64 2.43 58
12 08/22/2012 02:25:27 73.86, 137.79 08/22/2012 02:25:39 73.83, 137.81 3.53 12




NCC Satellite Simultaneous Nadir Overpasses (SNOs) Prediction Service
